sat.trackr.live / text

‹ back to catalog

STARLINK-32514

NORAD 61965 · 2024-210G

PAYLOAD ACTIVE UNKNOWN

§ Identity

Operator
Country
US
Launch date
2024-11-14
Launch site
AFETR
Launch vehicle
Mass (kg)
RCS (m²)

Purposes: comms

External: N2YO · Heavens-Above · Gunter

§ Orbital elements

Epoch: 2026-05-25T03:23:49.654752Z

Period
94.27 min
Inclination
43.0033°
Eccentricity
0.0000851
Mean motion
15.27594927 rev/d
Perigee alt
482.4 km
Apogee alt
483.6 km
Semi-major
6,861.1 km
B*
8.5833e-4
RAAN
101.0264°
Arg perigee
270.5717°
Mean anomaly
89.5037°
Rev number
8,668

§ Raw data

STARLINK-325141 61965U 24210G   26145.14154693  .00023443  00000+0  85833-3 0  99922 61965  43.0033 101.0264 0000851 270.5717  89.5037 15.27594927 86680

JSON: /api/v1/satellites/61965 · /tle

For live sub-satellite position, see the globe view (requires WebGL).

§ Visibility from observer

Set your observer location to see the next 7 days of passes ≥ 10°. The values pass through the URL so the page stays shareable.

No JS? Fill the form by hand. The geolocation button needs JavaScript.